[[{"header":{"parameterUnit":"m.s-1","parameterCategory":2,"la1":30.2991,"la2":30.254,"lo1":-89.0895,"lo2":-89.0444,"dy":0.0017,"dx":0.0017,"nx":28,"ny":28,"refTime":"2025-09-01T21:00:00:Z","depth":"0","parameterNumber":2,"parameterNumberName":"U-component_of_CURRENTS"},"data":[0,0,0,0,0,0,0,0,0,0,0,0,0,0,0,0,0,0,0,0,0,0,0,0,0,0,0,0,0,0,0,0,0,0,0,0,0,0,0,0,0,0,0,0,0,0,0,0,0,0,0,0,0,0,0,0,0,0,0.2497,0.2497,0,0.2512,0.2512,0.2512,0.2505,0.2505,0.2505,0.2505,0.2482,0.2482,0.2481,0,0,0,0,0,0,0,0,0,0,0,0,0,0.2443,0.2444,0.2497,0.2497,0.2498,0.2512,0.2512,0.2512,0.2506,0.2505,0.2505,0.2505,0.2482,0.2482,0.2481,0,0,0,0,0,0,0,0,0,0,0,0,0,0.2462,0.2445,0.2497,0.2497,0.2498,0.2512,0.2512,0.2512,0.2506,0.2505,0.2505,0.2505,0.2482,0.2482,0.2481,0.2484,0,0,0.2479,0.2479,0,0,0,0,0,0,0,0,0.2461,0.2463,0.2497,0.2497,0.2498,0.2508,0.2485,0.2501,0.2506,0.2501,0.2505,0.2505,0.2489,0.2487,0.2489,0.2482,0.2481,0.2479,0.2479,0.2479,0.2478,0,0,0,0,0,0,0,0.2459,0.2463,0.2501,0.2497,0.2498,0.249,0.2493,0.2488,0.2494,0.2501,0.2501,0.2506,0.2488,0.249,0.2488,0.2481,0.2479,0.2479,0.2478,0.2478,0.2508,0.2509,0,0,0,0,0,0,0.2463,0.2462,0.2501,0.2502,0.248,0.2492,0.2494,0.2504,0.2495,0.2494,0.2506,0.2505,0.2491,0.2489,0.2488,0.252,0.2479,0.2478,0.2478,0.2507,0.2509,0.251,0,0,0,0,0,0,0.2462,0.2466,0.25,0.2483,0.2487,0.2493,0.2504,0.2504,0.2509,0.2499,0.2497,0.2511,0.2491,0.2488,0.2497,0.2517,0.2478,0.2477,0.2506,0.2508,0.2509,0.2564,0,0,0,0,0,0,0.246,0.2466,0.2472,0.2483,0.2488,0.2516,0.2504,0.2505,0.2513,0.2512,0.2503,0.25,0.249,0.2498,0.2496,0.2516,0.2477,0.2504,0.2507,0.2509,0.2561,0.2568,0.2573,0,0,0,0,0,0.2458,0.2465,0.2473,0.2478,0.2498,0.2517,0.2519,0.2521,0.2513,0.2522,0.2519,0.2501,0.2511,0.2499,0.2496,0.2516,0.2503,0.2506,0.2508,0.2558,0.2566,0.2573,0,0,0,0,0,0,0.2438,0.2466,0.2474,0.2488,0.2507,0.2517,0.2522,0.2525,0.2529,0.2526,0.2513,0.2512,0.2529,0.2515,0.2502,0.2532,0.2505,0.2507,0.2543,0.2551,0.2557,0.256,0.2476,0,0,0,0,0,0.2441,0.2457,0.2481,0.2492,0.2504,0.2515,0.2522,0.2527,0.2533,0.2535,0.2532,0.253,0.2538,0.2538,0.254,0.2552,0.2565,0.2565,0.2571,0.2576,0.2578,0.2616,0.2626,0.2518,0.2518,0.2518,0,0,0.2433,0.2453,0.2459,0.249,0.2503,0.2526,0.2518,0.2534,0.2553,0.2531,0.2551,0.2551,0.2547,0.2567,0.2573,0.2558,0.262,0.258,0.2584,0.2583,0.262,0.263,0.264,0.252,0.252,0.252,0,0,0.2431,0.2449,0.2465,0.2488,0.2517,0.253,0.2538,0.2558,0.2567,0.2588,0.2583,0.2598,0.26,0.261,0.2612,0.2653,0.2654,0.2653,0.2684,0.2721,0.2731,0.2739,0.2797,0.281,0.2654,0.2654,0.2654,0,0.2422,0.2448,0.2471,0.2498,0.2515,0.2535,0.2557,0.2576,0.2596,0.2611,0.26,0.263,0.2623,0.2657,0.2673,0.2667,0.2695,0.2655,0.273,0.2738,0.2746,0.2803,0.2817,0.2657,0.2657,0.2657,0.2656,0,0.2437,0.246,0.2472,0.2517,0.254,0.256,0.2597,0.2622,0.2633,0.2652,0.2688,0.2689,0.2707,0.2711,0.2702,0.2754,0.2762,0.2736,0.2711,0.276,0.2818,0.2831,0.2662,0.2661,0.266,0.2659,0,0,0.2403,0.247,0.2471,0.2499,0.2551,0.2572,0.2616,0.2661,0.2693,0.2716,0.2756,0.2773,0.2778,0.2781,0.2779,0.2807,0.289,0.2795,0.2796,0.2855,0.2998,0.3017,0.3033,0.2879,0.2881,0.2882,0.3028,0,0.2405,0.2453,0.2486,0.253,0.256,0.2602,0.2644,0.2691,0.2725,0.2772,0.2792,0.2827,0.2805,0.2819,0.2847,0.2877,0.2922,0.2854,0.294,0.2944,0.2955,0.3047,0.2945,0.3066,0.304,0.3043,0.3044,0,0.2404,0.2441,0.2482,0.255,0.2567,0.2598,0.2669,0.2713,0.2789,0.2816,0.2859,0.288,0.2937,0.29,0.2992,0.2952,0.2983,0.3002,0.3008,0.3011,0.2986,0.3008,0.3091,0.3027,0.3064,0.3062,0.3061,0,0.2368,0.2432,0.2463,0.2487,0.257,0.2598,0.2645,0.2722,0.276,0.2851,0.2889,0.2953,0.2992,0.3038,0.3091,0.3049,0.3196,0.3139,0.3192,0.3194,0.3116,0.3108,0.3142,0.3208,0.3208,0.3208,0.3207,0,0.2355,0.2377,0.245,0.2472,0.2512,0.2585,0.2632,0.2694,0.2777,0.2833,0.2909,0.2964,0.3026,0.3113,0.3141,0.3233,0.3245,0.3228,0.3239,0.3136,0.3128,0.3073,0.3026,0.3213,0.3212,0.3211,0.321,0,0.2305,0.2354,0.2392,0.2473,0.2496,0.2526,0.2606,0.2647,0.2746,0.2824,0.2858,0.299,0.3124,0.3205,0.3305,0.3306,0.3303,0.3406,0.3299,0.3295,0.3252,0.3212,0.3151,0.3045,0.3483,0.3485,0.3486,0,0.2284,0.2302,0.2369,0.2386,0.2419,0.2469,0.2505,0.2608,0.266,0.2836,0.2877,0.3044,0.3163,0.3356,0.3403,0.3509,0.3374,0.3448,0.3335,0.327,0.3234,0.3087,0.2989,0.3266,0.3265,0.3264,0.3264,0,0.2239,0.2258,0.2289,0.2325,0.2358,0.239,0.2462,0.2493,0.2634,0.2733,0.2893,0.3015,0.3233,0.3313,0.3462,0.349,0.3288,0.344,0.3386,0.3093,0.292,0.2816,0.317,0.3259,0.3259,0.326,0.326,0.326,0.2185,0.2188,0.2227,0.2254,0.2287,0.2315,0.2314,0.2411,0.25,0.2628,0.2813,0.296,0.3157,0.3365,0.3385,0.3359,0.329,0.3255,0.3227,0.3096,0.2936,0.3306,0.3394,0.3395,0.3396,0.3397,0.3398,0,0.2114,0.2132,0.2157,0.218,0.218,0.2228,0.228,0.2271,0.2344,0.2514,0.2652,0.2877,0.3009,0.3142,0.3241,0.3157,0.2972,0.307,0.2817,0.2738,0.3095,0.3028,0.3024,0.3024,0.3024,0.3024,0.3024,0.3024,0.2073,0.2067,0.2087,0.2066,0.2081,0.2041,0.2045,0.2066,0.2152,0.2283,0.241,0.2558,0.2888,0.3103,0.3087,0.3005,0.2744,0.2651,0.2611,0.2862,0.2874,0.2886,0.2813,0.2764,0.2763,0.2123,0.2118,0.2115]},{"header":{"parameterUnit":"m.s-1","parameterCategory":2,"la1":30.2991,"la2":30.254,"lo1":-89.0895,"lo2":-89.0444,"dy":0.0017,"dx":0.0017,"nx":28,"ny":28,"refTime":"2025-09-01T21:00:00:Z","depth":"0","parameterNumber":3,"parameterNumberName":"V-component_of_CURRENTS"},"data":[0,0,0,0,0,0,0,0,0,0,0,0,0,0,0,0,0,0,0,0,0,0,0,0,0,0,0,0,0,0,0,0,0,0,0,0,0,0,0,0,0,0,0,0,0,0,0,0,0,0,0,0,0,0,0,0,0,0,-0.0241,-0.0241,0,-0.0303,-0.0304,-0.0305,-0.0349,-0.035,-0.035,-0.035,-0.0442,-0.0444,-0.0447,0,0,0,0,0,0,0,0,0,0,0,0,0,-0.0187,-0.0188,-0.024,-0.0241,-0.0242,-0.0303,-0.0304,-0.0306,-0.0349,-0.035,-0.035,-0.035,-0.0441,-0.0444,-0.0447,0,0,0,0,0,0,0,0,0,0,0,0,0,-0.0229,-0.0188,-0.024,-0.0269,-0.0272,-0.0303,-0.0304,-0.0306,-0.0349,-0.035,-0.035,-0.035,-0.0441,-0.0444,-0.0447,-0.0466,0,0,-0.0458,-0.046,0,0,0,0,0,0,0,0,-0.0226,-0.0231,-0.0264,-0.0267,-0.027,-0.0317,-0.0319,-0.036,-0.0349,-0.0323,-0.035,-0.035,-0.0401,-0.0408,-0.0423,-0.047,-0.0474,-0.0459,-0.0461,-0.0462,-0.0463,0,0,0,0,0,0,0,-0.0223,-0.0229,-0.0268,-0.0265,-0.0269,-0.0289,-0.0295,-0.0328,-0.0363,-0.0325,-0.0328,-0.0331,-0.0403,-0.0419,-0.0425,-0.0476,-0.0458,-0.0462,-0.0464,-0.0465,-0.0547,-0.0547,0,0,0,0,0,0,-0.0209,-0.0226,-0.0266,-0.027,-0.0245,-0.0289,-0.0296,-0.0304,-0.0362,-0.037,-0.033,-0.0332,-0.0413,-0.0421,-0.0429,-0.0451,-0.0462,-0.0466,-0.0468,-0.0547,-0.0547,-0.0547,0,0,0,0,0,0,-0.0208,-0.0212,-0.0263,-0.0247,-0.0254,-0.0289,-0.0298,-0.0305,-0.0319,-0.0365,-0.0374,-0.0337,-0.0413,-0.0424,-0.0457,-0.0455,-0.0467,-0.047,-0.0546,-0.0547,-0.0547,-0.0497,0,0,0,0,0,0,-0.0206,-0.0211,-0.0212,-0.0246,-0.0255,-0.0276,-0.0298,-0.0306,-0.032,-0.0323,-0.0374,-0.0383,-0.0414,-0.0452,-0.0461,-0.046,-0.0473,-0.0546,-0.0546,-0.0547,-0.0498,-0.0495,-0.0492,0,0,0,0,0,-0.0204,-0.0198,-0.0212,-0.0216,-0.0254,-0.0275,-0.0282,-0.0309,-0.0319,-0.0323,-0.036,-0.0381,-0.0459,-0.0455,-0.0466,-0.0465,-0.0546,-0.0546,-0.0547,-0.05,-0.0496,-0.0492,0,0,0,0,0,0,-0.017,-0.0203,-0.0218,-0.0222,-0.0245,-0.0281,-0.0283,-0.0304,-0.0337,-0.0338,-0.0385,-0.0397,-0.0426,-0.0452,-0.0447,-0.0489,-0.0505,-0.0507,-0.0466,-0.0462,-0.0459,-0.0441,-0.0476,0,0,0,0,0,-0.0163,-0.0169,-0.0204,-0.0204,-0.0214,-0.0249,-0.026,-0.0279,-0.031,-0.0324,-0.0361,-0.04,-0.0435,-0.0453,-0.0488,-0.0511,-0.0532,-0.0517,-0.0514,-0.0511,-0.0504,-0.0542,-0.0542,-0.0547,-0.0547,-0.0547,0,0,-0.0148,-0.0166,-0.0169,-0.0197,-0.0216,-0.0225,-0.0256,-0.0267,-0.0276,-0.0329,-0.0352,-0.0392,-0.0439,-0.0466,-0.0481,-0.0488,-0.0518,-0.0511,-0.0508,-0.0503,-0.0542,-0.0542,-0.0541,-0.0547,-0.0547,-0.0547,0,0,-0.0117,-0.0138,-0.0134,-0.0151,-0.0175,-0.02,-0.0201,-0.0238,-0.0257,-0.0284,-0.0325,-0.0362,-0.0413,-0.0448,-0.0472,-0.0473,-0.0502,-0.0483,-0.0453,-0.049,-0.049,-0.049,-0.0501,-0.0502,-0.048,-0.048,-0.048,0,-0.0097,-0.01,-0.0133,-0.0133,-0.014,-0.0185,-0.018,-0.0208,-0.0252,-0.0264,-0.0282,-0.0361,-0.0403,-0.0439,-0.0442,-0.0465,-0.0482,-0.0461,-0.0485,-0.0486,-0.0487,-0.0498,-0.0501,-0.0477,-0.0478,-0.0478,-0.0478,0,-0.0066,-0.0069,-0.0064,-0.0083,-0.0096,-0.0097,-0.0137,-0.0154,-0.0183,-0.0213,-0.0253,-0.0315,-0.0359,-0.0382,-0.0414,-0.0441,-0.0449,-0.0477,-0.0491,-0.0483,-0.0496,-0.0499,-0.0474,-0.0475,-0.0475,-0.0476,0,0,-0.0021,-0.004,-0.0038,-0.0036,-0.0069,-0.0074,-0.0088,-0.0115,-0.0116,-0.0173,-0.0181,-0.0257,-0.0291,-0.032,-0.037,-0.0407,-0.043,-0.0439,-0.0442,-0.0442,-0.0492,-0.0458,-0.0459,-0.0463,-0.0464,-0.0464,-0.0493,0,0.0013,0.0028,0.0007,0.0022,0.0024,-0.0015,-0.002,-0.005,-0.0083,-0.0104,-0.0175,-0.0204,-0.0268,-0.0284,-0.0334,-0.0405,-0.0438,-0.0418,-0.0506,-0.0508,-0.0474,-0.0462,-0.0441,-0.0462,-0.0496,-0.0497,-0.0497,0,0.0048,0.0053,0.0075,0.0073,0.0073,0.0075,0.0064,0.0053,0.0008,-0.0018,-0.0068,-0.0119,-0.0182,-0.0235,-0.0351,-0.0334,-0.0405,-0.0464,-0.0467,-0.0455,-0.0481,-0.048,-0.0467,-0.0624,-0.0502,-0.0502,-0.0502,0,0.0093,0.01,0.0122,0.012,0.011,0.0119,0.0112,0.0081,0.0088,0.0039,0.0044,-0.0051,-0.0074,-0.0193,-0.0305,-0.0332,-0.0418,-0.0473,-0.051,-0.0508,-0.0516,-0.0513,-0.0659,-0.0553,-0.0552,-0.0552,-0.0552,0,0.0132,0.0151,0.0148,0.0159,0.0198,0.017,0.02,0.018,0.0169,0.0198,0.0095,0.0111,-0.0064,-0.013,-0.0266,-0.0375,-0.0389,-0.0494,-0.0513,-0.0495,-0.0491,-0.0649,-0.075,-0.0553,-0.0553,-0.0553,-0.0553,0,0.0176,0.0172,0.02,0.0207,0.022,0.0245,0.0271,0.0294,0.027,0.0308,0.0303,0.0241,0.0166,0.0003,-0.016,-0.0293,-0.0506,-0.046,-0.0407,-0.0421,-0.0614,-0.0713,-0.087,-0.0934,-0.0519,-0.0519,-0.0518,0,0.0198,0.0217,0.0249,0.0281,0.029,0.0324,0.0358,0.0347,0.0386,0.0404,0.0444,0.0394,0.0397,0.0178,-0.0061,-0.0274,-0.0452,-0.0414,-0.0475,-0.061,-0.0737,-0.0813,-0.0862,-0.0467,-0.0466,-0.0466,-0.0465,0,0.0245,0.0257,0.0286,0.0355,0.04,0.0451,0.0503,0.0556,0.0566,0.0623,0.0708,0.0719,0.0524,0.0351,0.0055,-0.0129,-0.0525,-0.0404,-0.0577,-0.0727,-0.0789,-0.0863,-0.045,-0.0458,-0.0459,-0.0459,-0.046,-0.046,0.029,0.0324,0.0371,0.0441,0.0499,0.0587,0.0654,0.0735,0.0845,0.096,0.0943,0.1007,0.0699,0.0316,0.0049,-0.0435,-0.0464,-0.0596,-0.0707,-0.0773,-0.0833,-0.0379,-0.039,-0.0391,-0.0391,-0.0391,-0.0391,0,0.0354,0.0395,0.0459,0.0547,0.0629,0.0643,0.0765,0.0852,0.1024,0.1142,0.1241,0.115,0.0768,0.0318,-0.0313,-0.0668,-0.0834,-0.0884,-0.1021,-0.106,-0.0683,-0.0679,-0.0713,-0.0712,-0.0712,-0.0712,-0.0712,-0.0712,0.0391,0.0468,0.0502,0.0652,0.0719,0.0843,0.0925,0.1072,0.119,0.1374,0.1442,0.1459,0.1129,-0.0014,-0.0811,-0.1018,-0.1294,-0.1345,-0.1479,-0.1262,-0.1245,-0.1229,-0.1249,-0.1402,-0.1403,-0.1802,-0.1806,-0.181]}],[{"header":{"parameterUnit":"m.s-1","parameterCategory":2,"la1":30.2991,"la2":30.254,"lo1":-89.0895,"lo2":-89.0444,"dy":0.0017,"dx":0.0017,"nx":28,"ny":28,"refTime":"2025-09-01T21:00:00:Z","depth":"2","parameterNumber":2,"parameterNumberName":"U-component_of_CURRENTS"},"data":[0,0,0,0,0,0,0,0,0,0,0,0,0,0,0,0,0,0,0,0,0,0,0,0,0,0,0,0,0,0,0,0,0,0,0,0,0,0,0,0,0,0,0,0,0,0,0,0,0,0,0,0,0,0,0,0,0,0,0.2202,0.2203,0,0.2241,0.2242,0.2242,0.2251,0.2251,0.2251,0.2251,0.2269,0.2269,0.227,0,0,0,0,0,0,0,0,0,0,0,0,0,0.215,0.2151,0.2202,0.2203,0.2204,0.2241,0.2242,0.2242,0.2251,0.2251,0.2251,0.2251,0.2269,0.2269,0.227,0,0,0,0,0,0,0,0,0,0,0,0,0,0.2177,0.2151,0.2202,0.2214,0.2216,0.2241,0.2242,0.2242,0.2251,0.2251,0.2251,0.2251,0.2268,0.2269,0.227,0.2277,0,0,0.2272,0.2273,0,0,0,0,0,0,0,0,0.2175,0.2179,0.2212,0.2214,0.2216,0.2243,0.223,0.2253,0.2251,0.2235,0.2251,0.2251,0.226,0.2261,0.2266,0.2277,0.2278,0.2272,0.2273,0.2273,0.2273,0,0,0,0,0,0,0,0.2174,0.2177,0.2215,0.2213,0.2215,0.2223,0.2226,0.2234,0.2245,0.2237,0.2238,0.2246,0.226,0.2265,0.2266,0.2278,0.2272,0.2273,0.2274,0.2274,0.2301,0.2302,0,0,0,0,0,0,0.2173,0.2175,0.2214,0.2217,0.2197,0.2224,0.2228,0.2233,0.2246,0.2249,0.2246,0.2246,0.2264,0.2265,0.2267,0.2326,0.2273,0.2274,0.2274,0.2301,0.2301,0.2302,0,0,0,0,0,0,0.2171,0.2176,0.2213,0.2199,0.2204,0.2225,0.223,0.2233,0.2256,0.2254,0.2255,0.2268,0.2264,0.2266,0.2295,0.2324,0.2274,0.2275,0.2301,0.2301,0.2302,0.2411,0,0,0,0,0,0,0.217,0.2175,0.2181,0.2199,0.2205,0.2241,0.2231,0.2234,0.2261,0.2262,0.2273,0.2273,0.2264,0.2294,0.2296,0.2325,0.2276,0.2301,0.2301,0.2301,0.2407,0.2415,0.2422,0,0,0,0,0,0.2168,0.2179,0.2181,0.2186,0.2212,0.2243,0.2247,0.2259,0.2263,0.2278,0.2289,0.2274,0.2297,0.2296,0.2298,0.2327,0.23,0.2301,0.2301,0.2403,0.2413,0.2421,0,0,0,0,0,0,0.216,0.2182,0.2184,0.2202,0.2226,0.2245,0.2263,0.2273,0.2294,0.2292,0.2293,0.2295,0.2329,0.2306,0.2304,0.233,0.229,0.2291,0.2366,0.2376,0.2383,0.2372,0.2276,0,0,0,0,0,0.2161,0.2175,0.2199,0.2213,0.2229,0.225,0.2265,0.2271,0.2291,0.2301,0.2306,0.2308,0.2329,0.2336,0.2339,0.2362,0.2362,0.2373,0.238,0.2387,0.2376,0.2409,0.242,0.2304,0.2304,0.2304,0,0,0.216,0.2176,0.2182,0.2213,0.2232,0.226,0.2259,0.2285,0.2307,0.2298,0.2329,0.2341,0.2341,0.2371,0.2381,0.2359,0.2426,0.2388,0.2395,0.2378,0.2411,0.2423,0.2433,0.2304,0.2304,0.2304,0,0,0.2167,0.2184,0.2199,0.2224,0.2255,0.2272,0.2286,0.2311,0.2325,0.2359,0.236,0.2391,0.2408,0.2419,0.2429,0.2473,0.2469,0.2468,0.25,0.2535,0.2546,0.2555,0.2607,0.262,0.2468,0.2468,0.2468,0,0.2164,0.2187,0.221,0.2235,0.2258,0.2284,0.2308,0.2332,0.2359,0.2383,0.2376,0.2429,0.2432,0.2486,0.2498,0.2494,0.2515,0.2479,0.2549,0.2557,0.2565,0.2616,0.2629,0.2473,0.2473,0.2472,0.2472,0,0.2184,0.2207,0.2225,0.2264,0.2291,0.2318,0.2353,0.2379,0.2403,0.2432,0.2488,0.2498,0.2531,0.2539,0.2537,0.2591,0.2593,0.2566,0.2537,0.2584,0.2634,0.2646,0.2481,0.2479,0.2478,0.2476,0,0,0.216,0.2224,0.2231,0.2252,0.2306,0.2329,0.2376,0.2432,0.2474,0.2506,0.2564,0.2603,0.2618,0.2625,0.263,0.2649,0.2739,0.2631,0.263,0.2701,0.284,0.2778,0.2785,0.2735,0.2736,0.2738,0.2869,0,0.2169,0.2217,0.2248,0.2296,0.2323,0.2365,0.2416,0.2467,0.2511,0.2573,0.2612,0.2667,0.2652,0.2677,0.2704,0.2729,0.2767,0.2707,0.2764,0.2766,0.2721,0.2794,0.2595,0.2688,0.288,0.2882,0.2883,0,0.2172,0.2207,0.2252,0.2317,0.2335,0.2372,0.2449,0.2495,0.2592,0.2632,0.2697,0.2729,0.2796,0.2755,0.2843,0.2812,0.2831,0.2839,0.2844,0.2747,0.2724,0.266,0.2701,0.2902,0.29,0.2899,0.2898,0,0.2139,0.2205,0.224,0.2263,0.2345,0.2377,0.2428,0.2517,0.2566,0.267,0.2719,0.2806,0.2856,0.2891,0.2922,0.2896,0.3004,0.2972,0.294,0.2938,0.2753,0.273,0.3021,0.3021,0.3021,0.3021,0.302,0,0.213,0.2156,0.2231,0.2252,0.2306,0.2367,0.2429,0.2499,0.26,0.2667,0.2748,0.2804,0.2887,0.2955,0.2967,0.3003,0.3054,0.296,0.2966,0.2787,0.2767,0.2918,0.2904,0.3026,0.3024,0.3023,0.3023,0,0.2081,0.2133,0.2172,0.226,0.2289,0.2326,0.2425,0.2469,0.2578,0.2662,0.2701,0.284,0.2927,0.2996,0.3072,0.3061,0.309,0.3081,0.2878,0.2856,0.2998,0.2988,0.3079,0.3078,0.3077,0.3076,0.3075,0,0.2058,0.2078,0.2161,0.2186,0.2226,0.2287,0.233,0.2447,0.2497,0.2664,0.2704,0.2834,0.2892,0.3013,0.303,0.3076,0.3091,0.2894,0.2784,0.3006,0.3004,0.2995,0.2986,0.2609,0.2605,0.2601,0.2598,0,0.2018,0.205,0.2088,0.2142,0.2184,0.2221,0.2298,0.233,0.2463,0.2532,0.2637,0.2699,0.2845,0.281,0.2883,0.2868,0.2871,0.2821,0.3119,0.2612,0.2569,0.2565,0.2571,0.2566,0.2569,0.2572,0.2573,0.2575,0.1986,0.1992,0.2048,0.2086,0.2131,0.2147,0.2139,0.2214,0.2268,0.2347,0.2484,0.2511,0.2606,0.261,0.2566,0.2552,0.2732,0.2612,0.2621,0.2634,0.2542,0.2498,0.2468,0.247,0.2472,0.2474,0.2476,0,0.1932,0.1948,0.1987,0.2011,0.2006,0.2076,0.2107,0.2066,0.2063,0.2177,0.2236,0.212,0.2136,0.2217,0.2169,0.2201,0.2156,0.2098,0.2019,0.2055,0.2087,0.1962,0.1736,0.1733,0.1731,0.1728,0,0,0.1906,0.1902,0.1913,0.188,0.1898,0.1858,0.1848,0.1814,0.1856,0.1823,0.1842,0.2021,0.2155,0.1897,0.1904,0.1805,0.1898,0.1738,0.2345,0.2288,0.2314,0.2414,0.2269,0,0,0,0,0]},{"header":{"parameterUnit":"m.s-1","parameterCategory":2,"la1":30.2991,"la2":30.254,"lo1":-89.0895,"lo2":-89.0444,"dy":0.0017,"dx":0.0017,"nx":28,"ny":28,"refTime":"2025-09-01T21:00:00:Z","depth":"2","parameterNumber":3,"parameterNumberName":"V-component_of_CURRENTS"},"data":[0,0,0,0,0,0,0,0,0,0,0,0,0,0,0,0,0,0,0,0,0,0,0,0,0,0,0,0,0,0,0,0,0,0,0,0,0,0,0,0,0,0,0,0,0,0,0,0,0,0,0,0,0,0,0,0,0,0,-0.002,-0.002,0,-0.0085,-0.0085,-0.0086,-0.0127,-0.0128,-0.0128,-0.0128,-0.0223,-0.0225,-0.0228,0,0,0,0,0,0,0,0,0,0,0,0,0,0.0018,0.0017,-0.002,-0.0021,-0.0021,-0.0085,-0.0086,-0.0086,-0.0127,-0.0128,-0.0128,-0.0128,-0.0222,-0.0225,-0.0228,0,0,0,0,0,0,0,0,0,0,0,0,0,-0.0018,0.0017,-0.002,-0.0049,-0.0052,-0.0084,-0.0086,-0.0087,-0.0127,-0.0128,-0.0128,-0.0128,-0.0222,-0.0225,-0.0228,-0.0243,0,0,-0.0239,-0.0241,0,0,0,0,0,0,0,0,-0.0016,-0.0019,-0.0044,-0.0047,-0.0051,-0.0098,-0.0107,-0.0141,-0.0127,-0.0099,-0.0128,-0.0128,-0.0184,-0.019,-0.0202,-0.0248,-0.0252,-0.0239,-0.0241,-0.0243,-0.0244,0,0,0,0,0,0,0,-0.0013,-0.0017,-0.0046,-0.0045,-0.0049,-0.0077,-0.0082,-0.0114,-0.014,-0.0102,-0.0105,-0.0111,-0.0186,-0.0198,-0.0204,-0.0253,-0.0239,-0.0242,-0.0245,-0.0246,-0.0302,-0.0301,0,0,0,0,0,0,-0.0002,-0.0014,-0.0044,-0.0048,-0.0034,-0.0077,-0.0083,-0.0083,-0.0139,-0.0147,-0.0111,-0.0113,-0.0192,-0.02,-0.0208,-0.0228,-0.0243,-0.0246,-0.0248,-0.0303,-0.0302,-0.0301,0,0,0,0,0,0,-0.0001,-0.0003,-0.0041,-0.0033,-0.004,-0.0077,-0.0077,-0.0084,-0.0099,-0.0146,-0.0155,-0.0119,-0.0193,-0.0203,-0.0235,-0.0232,-0.0248,-0.0251,-0.0303,-0.0302,-0.0302,-0.0268,0,0,0,0,0,0,0.0001,-0.0002,0.0001,-0.0032,-0.004,-0.0053,-0.0077,-0.0085,-0.0102,-0.0106,-0.0156,-0.0165,-0.0194,-0.023,-0.0239,-0.0237,-0.0254,-0.0304,-0.0303,-0.0302,-0.027,-0.0266,-0.0263,0,0,0,0,0,0.0003,0.001,0.0002,-0.0002,-0.0033,-0.0052,-0.0058,-0.0087,-0.0102,-0.0103,-0.0139,-0.0163,-0.0228,-0.0232,-0.0243,-0.0242,-0.0305,-0.0303,-0.0302,-0.0272,-0.0267,-0.0263,0,0,0,0,0,0,0.0026,0.0005,-0.0004,-0.0004,-0.0022,-0.0059,-0.0064,-0.0085,-0.0114,-0.0119,-0.0165,-0.0176,-0.0202,-0.0223,-0.0226,-0.0252,-0.0267,-0.0267,-0.024,-0.0236,-0.0233,-0.0209,-0.0257,0,0,0,0,0,0.0035,0.0036,0.001,0.0011,0.0003,-0.003,-0.0042,-0.006,-0.0091,-0.0104,-0.0137,-0.0171,-0.0203,-0.022,-0.0249,-0.0268,-0.0289,-0.027,-0.0266,-0.0263,-0.0249,-0.0283,-0.0281,-0.0297,-0.0297,-0.0297,0,0,0.0044,0.0033,0.0032,0.0016,-0.0002,-0.0004,-0.0038,-0.0051,-0.0053,-0.011,-0.0123,-0.0164,-0.0206,-0.0227,-0.0239,-0.0245,-0.027,-0.0262,-0.0259,-0.0246,-0.0281,-0.028,-0.0279,-0.0296,-0.0296,-0.0296,0,0,0.0066,0.0054,0.0064,0.0053,0.0033,0.0014,0.0013,-0.0018,-0.0031,-0.0053,-0.0093,-0.0128,-0.0173,-0.0202,-0.0224,-0.0216,-0.0252,-0.0224,-0.0189,-0.0222,-0.0221,-0.0221,-0.0248,-0.025,-0.022,-0.022,-0.022,0,0.0079,0.0088,0.0063,0.007,0.0067,0.0027,0.0039,0.0019,-0.0018,-0.0028,-0.0049,-0.0118,-0.0159,-0.0189,-0.0187,-0.0209,-0.0231,-0.0206,-0.0218,-0.0218,-0.0218,-0.0246,-0.0249,-0.0218,-0.0218,-0.0219,-0.0219,0,0.0108,0.0116,0.012,0.0119,0.0113,0.0115,0.0089,0.0083,0.0057,0.0027,-0.0007,-0.0065,-0.0105,-0.0125,-0.0158,-0.0176,-0.0192,-0.0214,-0.023,-0.0215,-0.0245,-0.0249,-0.0216,-0.0216,-0.0217,-0.0217,0,0,0.0142,0.0142,0.0144,0.016,0.0141,0.0144,0.0144,0.0131,0.0135,0.0083,0.0078,0.0007,-0.0033,-0.0058,-0.0106,-0.0135,-0.0166,-0.0169,-0.0171,-0.0197,-0.0235,-0.0237,-0.0242,-0.0194,-0.0194,-0.0194,-0.0258,0,0.0175,0.0206,0.0193,0.0225,0.0241,0.0215,0.0222,0.0202,0.0176,0.0161,0.0088,0.0058,-0.0006,-0.0024,-0.0067,-0.0136,-0.0172,-0.0146,-0.0244,-0.0247,-0.0252,-0.0245,-0.0225,-0.0279,-0.0262,-0.0262,-0.0263,0,0.0213,0.023,0.0265,0.029,0.0294,0.0301,0.0314,0.0316,0.0277,0.0254,0.0202,0.0144,0.0083,0.0034,-0.0082,-0.0063,-0.0142,-0.0199,-0.0203,-0.0215,-0.0255,-0.0291,-0.0287,-0.0269,-0.0269,-0.0268,-0.0268,0,0.0258,0.0285,0.0318,0.0323,0.0337,0.035,0.0356,0.0337,0.0353,0.0312,0.0311,0.0218,0.0186,0.0073,-0.0054,-0.0071,-0.0172,-0.0214,-0.0291,-0.0293,-0.0297,-0.0298,-0.0291,-0.0291,-0.0291,-0.0291,-0.0291,0,0.0303,0.0333,0.0341,0.036,0.0406,0.0396,0.0437,0.0432,0.043,0.0453,0.0358,0.0363,0.0197,0.0113,-0.0021,-0.0157,-0.0154,-0.0277,-0.0306,-0.0285,-0.0284,-0.0291,-0.029,-0.0293,-0.0293,-0.0292,-0.0292,0,0.035,0.0352,0.0397,0.0418,0.0428,0.0461,0.0499,0.0533,0.0517,0.0552,0.0544,0.0473,0.0367,0.02,0.0032,-0.0097,-0.0237,-0.0288,-0.0246,-0.0269,-0.0348,-0.0345,-0.0388,-0.0389,-0.0389,-0.039,-0.039,0,0.0378,0.0401,0.0442,0.0473,0.0483,0.0527,0.0563,0.0573,0.0617,0.0627,0.0656,0.0571,0.0524,0.0277,0.0045,-0.0184,-0.022,-0.0317,-0.0349,-0.0332,-0.0357,-0.0353,-0.0349,-0.0349,-0.0349,-0.0349,-0.0349,0,0.043,0.0436,0.0473,0.0535,0.0578,0.064,0.0694,0.0742,0.0766,0.0794,0.0829,0.0794,0.0567,0.0353,0.0046,-0.0116,-0.0282,-0.0323,-0.0317,-0.032,-0.0298,-0.0322,-0.0319,-0.0349,-0.0349,-0.0349,-0.0349,-0.0349,0.0465,0.05,0.054,0.0603,0.066,0.0742,0.0799,0.0867,0.0943,0.0988,0.096,0.0912,0.0672,0.0285,0.0018,-0.0269,-0.0269,-0.0379,-0.0378,-0.0377,-0.0353,-0.0333,-0.0386,-0.0386,-0.0386,-0.0386,-0.0386,0,0.0508,0.0546,0.0608,0.0682,0.0753,0.0776,0.0881,0.0938,0.1032,0.1075,0.1089,0.0863,0.0621,0.0338,-0.0079,-0.033,-0.0362,-0.0415,-0.0395,-0.0393,-0.0392,-0.0369,-0.0406,-0.0407,-0.0407,-0.0408,0,0,0.053,0.0594,0.0625,0.0742,0.0799,0.0897,0.096,0.1041,0.1095,0.1131,0.111,0.105,0.0717,0.0418,0.0077,-0.0161,-0.0226,-0.0218,-0.0177,-0.0113,-0.0108,-0.0348,-0.0307,0,0,0,0,0]}],[{"header":{"parameterUnit":"m.s-1","parameterCategory":2,"la1":30.2991,"la2":30.254,"lo1":-89.0895,"lo2":-89.0444,"dy":0.0017,"dx":0.0017,"nx":28,"ny":28,"refTime":"2025-09-01T21:00:00:Z","depth":"4","parameterNumber":2,"parameterNumberName":"U-component_of_CURRENTS"},"data":[0,0,0,0,0,0,0,0,0,0,0,0,0,0,0,0,0,0,0,0,0,0,0,0,0,0,0,0,0,0,0,0,0,0,0,0,0,0,0,0,0,0,0,0,0,0,0,0,0,0,0,0,0,0,0,0,0,0,0.1286,0.1287,0,0.1334,0.1334,0.1334,0.1376,0.1376,0.1377,0.1378,0.1448,0.1449,0.145,0,0,0,0,0,0,0,0,0,0,0,0,0,0.1223,0.1224,0.1286,0.1287,0.1288,0.1334,0.1334,0.1334,0.1376,0.1377,0.1377,0.1378,0.1447,0.1449,0.145,0,0,0,0,0,0,0,0,0,0,0,0,0,0.1256,0.1224,0.1286,0.1316,0.132,0.1334,0.1334,0.1334,0.1375,0.1377,0.1378,0.1379,0.1447,0.1448,0.145,0.1439,0,0,0.1456,0.1456,0,0,0,0,0,0,0,0,0.1254,0.1258,0.1311,0.1314,0.1318,0.1353,0.1338,0.1371,0.1375,0.1351,0.1378,0.1379,0.1419,0.1423,0.1425,0.1442,0.1445,0.1456,0.1457,0.1458,0.1458,0,0,0,0,0,0,0,0.1252,0.1256,0.1302,0.1312,0.1316,0.1325,0.133,0.1344,0.1376,0.1353,0.1357,0.1367,0.1421,0.1423,0.1427,0.1446,0.1456,0.1457,0.1458,0.1459,0.1547,0.1548,0,0,0,0,0,0,0.1251,0.1254,0.1301,0.1304,0.1291,0.1325,0.1331,0.1338,0.1376,0.1383,0.1366,0.1369,0.142,0.1425,0.143,0.15,0.1458,0.1459,0.146,0.1545,0.1547,0.1548,0,0,0,0,0,0,0.1249,0.1254,0.1299,0.1282,0.1289,0.1325,0.1332,0.1338,0.1374,0.1386,0.1393,0.14,0.1421,0.1427,0.1464,0.15,0.146,0.1462,0.1544,0.1546,0.1548,0.1589,0,0,0,0,0,0,0.1247,0.1253,0.1269,0.1282,0.129,0.1327,0.1332,0.1339,0.1378,0.1383,0.1417,0.1422,0.1422,0.1461,0.1466,0.1502,0.1463,0.1542,0.1545,0.1547,0.1586,0.1592,0.1597,0,0,0,0,0,0.1245,0.1257,0.1269,0.1276,0.1307,0.1328,0.1333,0.136,0.1379,0.1396,0.1418,0.1423,0.148,0.1463,0.1468,0.1506,0.1541,0.1544,0.1547,0.1583,0.1591,0.1597,0,0,0,0,0,0,0.1238,0.1264,0.1277,0.1298,0.1322,0.1337,0.1361,0.1378,0.1408,0.1423,0.1432,0.1439,0.1489,0.1489,0.147,0.1539,0.1514,0.1518,0.1541,0.1548,0.1553,0.1562,0.1464,0,0,0,0,0,0.1243,0.1264,0.1286,0.1307,0.1322,0.1348,0.1366,0.1385,0.1408,0.1424,0.1447,0.1473,0.1498,0.1516,0.1535,0.1567,0.1574,0.1597,0.1602,0.1607,0.1618,0.1649,0.1658,0.1558,0.1558,0.1558,0,0,0.1248,0.1266,0.1279,0.1309,0.1331,0.1353,0.1362,0.1399,0.1422,0.1426,0.1474,0.1496,0.1511,0.155,0.1572,0.1558,0.1641,0.1611,0.1615,0.1624,0.1653,0.1663,0.1672,0.156,0.1559,0.1559,0,0,0.1258,0.1285,0.1303,0.1326,0.1366,0.1379,0.1397,0.143,0.1455,0.1492,0.1508,0.155,0.1583,0.1602,0.1614,0.1662,0.1671,0.1679,0.1714,0.1744,0.1753,0.176,0.1785,0.1795,0.168,0.168,0.168,0,0.1265,0.1287,0.1313,0.1335,0.136,0.1394,0.1418,0.1443,0.1485,0.1511,0.1516,0.159,0.1605,0.1656,0.1677,0.1676,0.1695,0.1685,0.1751,0.1759,0.1766,0.179,0.18,0.1682,0.1682,0.1681,0.1681,0,0.1279,0.1308,0.1324,0.1362,0.139,0.142,0.1455,0.1493,0.1529,0.1553,0.1622,0.1643,0.1688,0.1705,0.1708,0.1774,0.1773,0.1755,0.1732,0.1778,0.1801,0.181,0.1685,0.1684,0.1684,0.1683,0,0,0.1261,0.1322,0.133,0.1355,0.141,0.1431,0.148,0.1529,0.157,0.1619,0.1671,0.1725,0.1754,0.177,0.1788,0.182,0.1886,0.1819,0.1819,0.1841,0.1961,0.1858,0.1858,0.1886,0.1888,0.1889,0.1958,0,0.1266,0.1307,0.134,0.1387,0.141,0.1463,0.1504,0.1558,0.1604,0.1662,0.1709,0.1768,0.1772,0.1811,0.1843,0.1881,0.1914,0.187,0.1916,0.1917,0.1818,0.1867,0.1895,0.1965,0.1967,0.1968,0.1969,0,0.1261,0.1291,0.1335,0.1402,0.142,0.1458,0.1538,0.1584,0.1668,0.1707,0.1774,0.1814,0.1891,0.1877,0.1963,0.194,0.1961,0.1979,0.1982,0.1878,0.1832,0.1909,0.1987,0.1985,0.1984,0.1983,0.1982,0,0.1219,0.1286,0.1322,0.1346,0.1425,0.1467,0.1522,0.1605,0.1652,0.1752,0.1799,0.1877,0.1935,0.1977,0.2026,0.2007,0.2107,0.2072,0.1998,0.1991,0.2044,0.2036,0.2128,0.2128,0.2128,0.2128,0.2128,0,0.1194,0.1227,0.1313,0.1331,0.1388,0.1459,0.153,0.1593,0.1687,0.1745,0.183,0.1881,0.1968,0.2031,0.2052,0.2059,0.2128,0.2018,0.2005,0.206,0.2052,0.2051,0.2041,0.213,0.213,0.2129,0.2129,0,0.1135,0.1193,0.1238,0.1331,0.1367,0.1412,0.1529,0.1573,0.1681,0.1759,0.1801,0.1912,0.1994,0.2062,0.2137,0.2087,0.2106,0.209,0.2163,0.2151,0.1963,0.1955,0.2003,0.2,0.1998,0.1996,0.1994,0,0.1105,0.1123,0.1224,0.1255,0.1303,0.1385,0.1435,0.1553,0.1601,0.176,0.1784,0.1912,0.1974,0.1994,0.2071,0.2106,0.2085,0.2075,0.2002,0.197,0.1953,0.1948,0.1943,0.199,0.1989,0.1989,0.1988,0,0.1043,0.1091,0.1129,0.1193,0.125,0.1307,0.1395,0.1418,0.1556,0.1667,0.1731,0.1784,0.1873,0.1926,0.1977,0.1993,0.2066,0.2048,0.2052,0.1983,0.1954,0.1938,0.1937,0.1979,0.198,0.1981,0.1982,0,0.1002,0.1011,0.107,0.1118,0.1184,0.1213,0.1269,0.1334,0.14,0.1575,0.1593,0.1731,0.1848,0.187,0.1914,0.1929,0.1895,0.1824,0.1839,0.185,0.1769,0.1707,0.1657,0,0,0,0,0,0.0953,0.0957,0.0992,0.1035,0.1095,0.1138,0.1233,0.1293,0.1425,0.143,0.1509,0.1586,0.166,0.1731,0.1718,0.1852,0.1903,0.1828,0.1826,0.193,0.194,0.1861,0,0,0,0,0,0,0.0917,0.0948,0.096,0.0957,0.0975,0.1028,0.1085,0.1173,0.1187,0.133,0.1379,0.1494,0.1589,0.1653,0.1688,0.1712,0.1679,0.192,0.1916,0.1924,0.1934,0.1942,0.1864,0,0,0,0,0]},{"header":{"parameterUnit":"m.s-1","parameterCategory":2,"la1":30.2991,"la2":30.254,"lo1":-89.0895,"lo2":-89.0444,"dy":0.0017,"dx":0.0017,"nx":28,"ny":28,"refTime":"2025-09-01T21:00:00:Z","depth":"4","parameterNumber":3,"parameterNumberName":"V-component_of_CURRENTS"},"data":[0,0,0,0,0,0,0,0,0,0,0,0,0,0,0,0,0,0,0,0,0,0,0,0,0,0,0,0,0,0,0,0,0,0,0,0,0,0,0,0,0,0,0,0,0,0,0,0,0,0,0,0,0,0,0,0,0,0,0.0083,0.0082,0,0.0043,0.0042,0.0042,0.0017,0.0017,0.0017,0.0017,-0.004,-0.0041,-0.0043,0,0,0,0,0,0,0,0,0,0,0,0,0,0.0101,0.0101,0.0083,0.0082,0.0082,0.0043,0.0042,0.0042,0.0017,0.0017,0.0017,0.0017,-0.004,-0.0041,-0.0043,0,0,0,0,0,0,0,0,0,0,0,0,0,0.008,0.0101,0.0083,0.0065,0.0063,0.0043,0.0042,0.0041,0.0017,0.0017,0.0017,0.0017,-0.0039,-0.0041,-0.0043,-0.0054,0,0,-0.005,-0.0051,0,0,0,0,0,0,0,0,0.0081,0.0079,0.0068,0.0066,0.0064,0.0035,0.0027,0.0009,0.0017,0.0035,0.0017,0.0017,-0.0016,-0.002,-0.0028,-0.0056,-0.0059,-0.005,-0.0051,-0.0052,-0.0053,0,0,0,0,0,0,0,0.0083,0.008,0.0067,0.0068,0.0065,0.0046,0.0044,0.0024,0.001,0.0033,0.0031,0.0027,-0.0017,-0.0025,-0.0029,-0.006,-0.005,-0.0052,-0.0053,-0.0054,-0.0098,-0.0098,0,0,0,0,0,0,0.009,0.0082,0.0068,0.0065,0.0073,0.0046,0.0043,0.0044,0.001,0.0005,0.0027,0.0026,-0.0022,-0.0027,-0.0031,-0.0031,-0.0052,-0.0054,-0.0055,-0.0098,-0.0098,-0.0098,0,0,0,0,0,0,0.0091,0.009,0.0069,0.0073,0.0069,0.0047,0.0048,0.0044,0.0037,0.0006,0.0001,0.0025,-0.0022,-0.0028,-0.0039,-0.0034,-0.0055,-0.0057,-0.0099,-0.0098,-0.0098,-0.004,0,0,0,0,0,0,0.0092,0.009,0.0094,0.0073,0.0069,0.0064,0.0048,0.0043,0.0035,0.0033,0.0002,-0.0003,-0.0023,-0.0036,-0.0041,-0.0037,-0.0059,-0.0099,-0.0098,-0.0098,-0.0042,-0.0038,-0.0034,0,0,0,0,0,0.0093,0.0099,0.0095,0.0093,0.0075,0.0064,0.006,0.0043,0.0035,0.0036,0.0019,-0.0002,-0.0039,-0.0037,-0.0044,-0.004,-0.0099,-0.0099,-0.0098,-0.0044,-0.0038,-0.0034,0,0,0,0,0,0,0.0107,0.0097,0.0092,0.0094,0.0083,0.006,0.0058,0.0046,0.0033,0.0031,0.0003,-0.0003,-0.0012,-0.0035,-0.0033,-0.0054,-0.0074,-0.0075,-0.003,-0.0026,-0.0022,-0.0014,-0.0061,0,0,0,0,0,0.0114,0.0117,0.0102,0.0104,0.0101,0.008,0.0074,0.0062,0.0047,0.0041,0.0021,-0.0002,-0.0017,-0.0027,-0.0047,-0.0056,-0.0082,-0.006,-0.0056,-0.0053,-0.0052,-0.008,-0.0078,-0.0097,-0.0097,-0.0097,0,0,0.0119,0.0114,0.0116,0.0108,0.0097,0.01,0.0076,0.0069,0.0073,0.0036,0.0036,0.0012,-0.0017,-0.0024,-0.0032,-0.0042,-0.0062,-0.0053,-0.0049,-0.005,-0.0079,-0.0077,-0.0075,-0.0097,-0.0097,-0.0097,0,0,0.0135,0.013,0.0139,0.0134,0.0123,0.0113,0.0114,0.0095,0.0089,0.0083,0.006,0.0042,0.0016,-0.0001,-0.0014,-0.0002,-0.0039,-0.0012,0.0014,-0.0012,-0.001,-0.0009,-0.0039,-0.0041,-0.0011,-0.001,-0.001,0,0.0143,0.0155,0.0139,0.0147,0.0149,0.0124,0.0136,0.0126,0.0107,0.0107,0.0091,0.0053,0.0027,0.002,0.0023,0.0008,-0.0015,0.0002,-0.0006,-0.0005,-0.0005,-0.0036,-0.0039,-0.0008,-0.0008,-0.0008,-0.0008,0,0.0166,0.0176,0.0181,0.0188,0.0187,0.0192,0.018,0.0178,0.0165,0.0154,0.0141,0.0104,0.0082,0.0068,0.0049,0.0038,0.0019,0.0005,-0.0014,0.0,-0.0033,-0.0037,-0.0003,-0.0005,-0.0005,-0.0006,0,0,0.0185,0.0197,0.0199,0.0216,0.0211,0.0216,0.0224,0.0227,0.0236,0.0207,0.0212,0.0175,0.0149,0.0132,0.01,0.0072,0.0051,0.0041,0.0038,0.0019,-0.001,-0.0029,-0.0036,0.0036,0.0036,0.0036,-0.0033,0,0.0211,0.0241,0.0238,0.0271,0.0289,0.0275,0.029,0.0287,0.0273,0.0271,0.0228,0.0218,0.0176,0.0165,0.0132,0.0071,0.0042,0.007,-0.0028,-0.0031,-0.0043,-0.004,0.0034,-0.0036,-0.0037,-0.0038,-0.0038,0,0.0237,0.0257,0.0294,0.0325,0.0332,0.0347,0.0366,0.0375,0.0362,0.0347,0.0321,0.0287,0.0245,0.0205,0.011,0.013,0.0066,0.0014,0.001,-0.0031,-0.0057,-0.0056,-0.0046,-0.0046,-0.0045,-0.0045,-0.0044,0,0.0266,0.0299,0.0334,0.0343,0.0369,0.0386,0.0401,0.04,0.0417,0.0395,0.0394,0.0337,0.0307,0.0223,0.0113,0.0113,0.0001,-0.0012,-0.0089,-0.0091,-0.0079,-0.008,-0.0077,-0.0077,-0.0077,-0.0077,-0.0077,0,0.0296,0.0326,0.0352,0.0372,0.0422,0.0425,0.0466,0.0468,0.0474,0.0494,0.0438,0.0425,0.031,0.0233,0.0131,0.0006,0.0014,-0.0086,-0.011,-0.0054,-0.0051,-0.0083,-0.0082,-0.008,-0.0079,-0.0079,-0.0078,0,0.032,0.0336,0.0381,0.0419,0.0436,0.0471,0.0516,0.0542,0.0539,0.0559,0.0557,0.0492,0.0384,0.0261,0.0115,0.0032,-0.0088,-0.0134,-0.0067,-0.0085,-0.0167,-0.0163,-0.0221,-0.0223,-0.0224,-0.0224,-0.0225,0,0.0335,0.036,0.0416,0.0446,0.0465,0.0515,0.055,0.0571,0.0596,0.0595,0.0606,0.0521,0.0456,0.0243,0.0103,-0.0092,-0.0122,-0.018,-0.0174,-0.0164,-0.0181,-0.0176,-0.017,-0.0227,-0.0227,-0.0227,-0.0228,0,0.0363,0.0379,0.0415,0.0478,0.0522,0.0577,0.0626,0.065,0.0672,0.0673,0.0642,0.0537,0.0412,0.0243,0.0088,-0.0051,-0.0139,-0.0191,-0.019,-0.0185,-0.0172,-0.0186,-0.018,-0.0231,-0.0231,-0.023,-0.023,0,0.0379,0.0404,0.0447,0.0502,0.0563,0.0617,0.0644,0.067,0.0697,0.0696,0.068,0.055,0.0477,0.0262,0.012,-0.0021,-0.0057,-0.0097,-0.0101,-0.0099,-0.0049,-0.0013,-0.0043,0,0,0,0,0,0.039,0.0415,0.0467,0.0524,0.0585,0.062,0.0685,0.0705,0.0726,0.0713,0.0701,0.0584,0.0374,0.0283,0.0138,0.0087,-0.0091,-0.0088,-0.0141,-0.0251,-0.0247,-0.021,0,0,0,0,0,0,0.0392,0.0439,0.0462,0.053,0.057,0.0638,0.0681,0.07,0.0691,0.0693,0.0584,0.0541,0.0334,0.0452,0.0131,0.0088,0.0034,-0.0184,-0.0187,-0.0253,-0.0249,-0.0246,-0.0207,0,0,0,0,0]}]]